Flag for Germany Weather past 2 weeks in Bietigheim-Bissingen, Baden-Württemberg, Germany

Now
71 °F

Overcast.


Feels Like: 77 °F
Forecast: 53 / 66 °F
Wind: 6 mph from Southwest

Location: Stuttgart-Echterdingen

Current Time: May 5, 2015 at 1:20:24 PM

Latest Report: May 5, 2015 at 1:00 PM


Visibility: 34 mi

Pressure: 29.70 "Hg

Humidity: 47%

Dew point: 50 °F

Location of Bietigheim-BissingenLocation

Historic Weather in Bietigheim-Bissingen — Graph

°F

Bietigheim-Bissingen temperature yesterday

Maximum temperature yesterday: 71 °F (at 6:00 PM)
Minimum temperature yesterday: 54 °F (at 7:00 AM)
Average temperature yesterday: 63 °F

Past Weeks' High & Low Weather Summary

 TemperatureHumidityPressure
High72 °F (May 5, 12:00 PM)99% (May 3, 6:00 AM)30.42 "Hg (May 3, 6:00 AM)
Low34 °F (Apr 23, 7:00 AM)23% (Apr 22, 4:00 PM)29.50 "Hg (Apr 27, 6:00 PM)
Average54 °F69%29.94 "Hg
* Reported Apr 20 12:00 Noon — May 5 12:00 Noon, Bietigheim-Bissingen, Weather by CustomWeather, © 2015

Note: Actual official high and low records may vary slightly from our data, if they occured in-between our weather recording intervals... More about our weather records

Advertising

Bietigheim-Bissingen weather history for previous 24 hours

 ConditionsComfort  
Time TempWeatherWind HumidityBarometerVisibility
12:00 PM
Tue, May 5
72 °FOvercast.6 mph48%29.67 "Hg40 mi
10:00 AM67 °FOvercast.2 mph67%29.65 "Hg40 mi
9:00 AM64 °FOvercast.1 mph88%29.63 "Hg40 mi
8:00 AM61 °FOvercast.1 mph85%29.62 "Hg37 mi
7:00 AM60 °FOvercast.1 mph88%29.61 "Hg43 mi
6:00 AM61 °FOvercast.2 mph81%29.62 "Hg43 mi
4:00 AM62 °FOvercast.1 mph79%29.63 "Hg43 mi
3:00 AM62 °FPassing clouds.1 mph81%29.64 "Hg43 mi
2:00 AM62 °FOvercast.2 mph81%29.65 "Hg43 mi
1:00 AM64 °FOvercast.2 mph78%29.66 "Hg43 mi
12:00 AM64 °FOvercast.2 mph78%29.70 "Hg43 mi
10:00 PM
Mon, May 4
64 °FOvercast.2 mph81%29.74 "Hg43 mi
9:00 PM65 °FOvercast.2 mph77%29.75 "Hg43 mi
8:00 PM68 °FPartly sunny.3 mph71%29.75 "Hg37 mi
7:00 PM70 °FPartly sunny.3 mph58%29.77 "Hg37 mi
6:00 PM71 °FOvercast.2 mph52%29.79 "Hg37 mi
4:00 PM71 °FOvercast.3 mph53%29.80 "Hg37 mi
3:00 PM69 °FOvercast.5 mph62%29.82 "Hg37 mi
2:00 PM70 °FOvercast.3 mph61%29.83 "Hg37 mi
1:00 PM67 °FPartly sunny.3 mph64%29.85 "Hg37 mi
Weather by CustomWeather, © 2015

See weather overviewHow to use our weather pages